EW4613 Weather Reports


Display with metric or nautical units.
time (UTC)temp
F
wind
direction
speed
MPH
gust
MPH
rain 1hr
in
rain 24hr
in
rain mn
in
humidity
%
barometer
mb
20260505164532 56 207 0.0 2.0 0.00 0.00 0.00 83 1016.6
20260505163030 56 212 0.0 3.0 0.00 0.00 0.00 82 1016.5
20260505161528 56 127 1.0 2.0 0.00 0.00 0.00 83 1016.4
20260505153020 55 309 0.0 3.0 0.00 0.00 0.00 84 1016.5
20260505151529 54 283 3.0 6.0 0.00 0.00 0.00 84 1016.4
20260505124555 53 290 1.0 6.0 0.00 0.00 0.00 88 1015.5
20260505123055 53 263 2.0 6.0 0.00 0.00 0.00 88 1015.3
20260505121554 53 257 0.0 0.0 0.00 0.00 0.00 88 1015.4
20260505120110 53 271 0.0 0.0 0.00 0.00 0.00 88 1015.3
20260505114552 53 265 0.0 0.0 0.00 0.00 0.00 88 1015.2
20260505113052 53 264 0.0 3.0 0.00 0.00 0.00 88 1015.3
20260505111551 53 274 1.0 3.0 0.00 0.00 0.00 89 1015.4
20260505101549 53 254 1.0 6.0 0.00 0.00 0.00 89 1015.0
20260505100045 53 231 0.0 5.0 0.00 0.00 0.00 88 1015.0
20260505094543 53 261 1.0 4.0 0.00 0.00 0.00 89 1014.9
20260505093044 53 269 2.0 7.0 0.00 0.00 0.00 89 1014.9
20260505091540 53 271 3.0 9.0 0.00 0.00 0.00 88 1014.8
20260505090045 53 258 4.0 8.0 0.00 0.00 0.00 89 1014.8
20260505084538 53 269 1.0 3.0 0.00 0.00 0.00 89 1014.7
20260505083035 53 240 1.0 3.0 0.00 0.00 0.00 89 1014.8
20260505081539 52 215 0.0 3.0 0.00 0.00 0.00 91 1014.8
20260505080038 52 286 0.0 2.0 0.00 0.00 0.00 92 1014.8
20260505074526 51 182 0.0 2.0 0.00 0.00 0.00 92 1014.7
20260505073042 51 254 0.0 0.0 0.00 0.00 0.00 93 1014.6
20260505071523 51 202 0.0 0.0 0.00 0.00 0.00 92 1014.5
20260505070023 51 224 0.0 2.0 0.00 0.00 0.00 91 1014.5
20260505064535 52 316 0.0 1.0 0.00 0.00 0.00 90 1014.5
20260505063019 52 5 0.0 0.0 0.00 0.00 0.00 90 1014.6
20260505061530 52 322 1.0 2.0 0.00 0.00 0.00 90 1014.4
20260505060018 53 348 0.0 3.0 0.00 0.00 0.00 89 1014.5
20260505054520 53 346 3.0 5.0 0.00 0.00 0.00 89 1014.4
20260505053016 53 322 3.0 7.0 0.00 0.00 0.00 88 1014.3
20260505051517 53 313 3.0 9.0 0.00 0.00 0.00 88 1014.2
20260505041515 54 319 3.0 10.0 0.00 0.00 0.00 86 1013.5
20260505040013 55 298 5.0 12.0 0.00 0.00 0.00 86 1013.2
20260505034512 55 309 4.0 13.0 0.00 0.00 0.00 85 1013.1
20260505033012 56 305 4.0 11.0 0.00 0.00 0.00 84 1012.7
20260505031530 56 293 5.0 14.0 0.00 0.00 0.00 83 1012.5
20260505030013 57 323 5.0 16.0 0.00 0.00 0.00 82 1012.3
20260505024520 59 316 3.0 13.0 0.00 0.00 0.00 80 1012.1
20260505023012 60 297 5.0 13.0 0.00 0.00 0.00 78 1012.0
20260505021513 61 299 10.0 17.0 0.00 0.00 0.00 77 1011.8
20260505020022 61 312 8.0 13.0 0.00 0.00 0.00 76 1011.8
20260505014508 62 323 7.0 17.0 0.00 0.00 0.00 76 1011.8
20260505013007 63 316 6.0 17.0 0.00 0.00 0.00 74 1011.8
20260505011508 64 349 5.0 17.0 0.00 0.00 0.00 73 1011.8
20260505010006 66 331 7.0 12.0 0.00 0.00 0.00 71 1011.9
20260505004513 67 339 4.0 10.0 0.00 0.00 0.00 71 1011.9
20260505003005 67 349 3.0 10.0 0.00 0.00 0.00 69 1011.9
20260505001504 68 350 5.0 11.0 0.00 0.00 0.00 70 1011.9
20260505000007 69 18 4.0 8.0 0.00 0.00 0.00 69 1011.9
20260504234504 69 338 4.0 9.0 0.00 0.00 0.00 68 1011.8
20260504233003 70 312 3.0 7.0 0.00 0.00 0.00 67 1011.8
20260504231502 70 320 3.0 9.0 0.00 0.00 0.00 67 1011.8
20260504230000 70 307 3.0 8.0 0.00 0.00 0.00 67 1012.0
20260504224501 71 315 3.0 8.0 0.00 0.00 0.00 65 1012.2
20260504223105 71 350 3.0 7.0 0.00 0.00 0.00 66 1012.4
20260504221605 70 308 0.0 7.0 0.00 0.00 0.00 70 1012.6
20260504220059 70 155 1.0 4.0 0.00 0.00 0.00 69 1012.7
20260504214557 69 120 1.0 5.0 0.00 0.00 0.00 69 1012.8
20260504213053 69 171 1.0 4.0 0.00 0.00 0.00 73 1012.9
20260504211549 68 160 2.0 8.0 0.00 0.00 0.00 71 1013.0
20260504210051 67 146 2.0 5.0 0.00 0.00 0.00 72 1013.2
20260504204546 66 139 1.0 9.0 0.00 0.00 0.00 73 1013.4
20260504203052 66 78 1.0 4.0 0.00 0.00 0.00 73 1013.4
20260504201543 65 328 0.0 5.0 0.00 0.00 0.00 75 1013.6
20260504200040 65 333 1.0 3.0 0.00 0.00 0.00 73 1013.6
20260504194538 63 133 2.0 5.0 0.00 0.00 0.00 75 1013.7
20260504193035 62 95 3.0 6.0 0.00 0.00 0.00 76 1013.8
20260504191536 61 51 1.0 6.0 0.00 0.00 0.00 76 1013.9
20260504190030 61 173 2.0 4.0 0.00 0.00 0.00 78 1013.9
20260504184528 60 277 0.0 4.0 0.00 0.00 0.00 79 1014.0
20260504183024 60 178 1.0 5.0 0.00 0.00 0.00 81 1014.2
20260504181522 59 115 1.0 6.0 0.00 0.00 0.00 80 1014.3
20260504180016 58 82 2.0 6.0 0.00 0.00 0.00 81 1014.3
20260504174513 58 161 1.0 5.0 0.00 0.00 0.00 81 1014.3
20260504173009 58 142 3.0 5.0 0.00 0.00 0.00 82 1014.3
20260504171506 57 194 1.0 5.0 0.00 0.00 0.00 83 1014.4